Weather History for Columbus, OH

Change the Weather History Date:

Sunday, July 7, 2013

  Actual Average Record
Temperature  
Mean Temperature 75 °F 75 °F  
Max Temperature 82 °F 85 °F 101 °F (2012)
Min Temperature 67 °F 65 °F 48 °F (1972)
Degree Days  
Heating Degree Days 0 0  
Month to date heating degree days 0 0  
Since 1 June heating degree days 6 19  
Since 1 July heating degree days 0 0  
Cooling Degree Days 10 10  
Month to date cooling degree days 75 70  
Year to date cooling degree days 474 368  
Since 1 June cooling degree days 313 286  
Growing Degree Days 24 (Base 50)    
Moisture  
Dew Point 64 °F    
Average Humidity 72    
Maximum Humidity 90    
Minimum Humidity 54    
Precipitation  
Precipitation 0.05 in 0.15 in 2.40 in (1943)
Month to date precipitation 0.79 1.02  
Year to date precipitation 17.72 20.60  
Snow  
Snow 0.00 in 0.00 in 0.00 in ()
Month to date snowfall 0.0 0.0  
Since 1 June snowfall 0.0 0.0  
Since 1 July snowfall 0.0 0.0  
Snow Depth 0.00 in    
Sea Level Pressure  
Sea Level Pressure 30.08 in    
Wind  
Wind Speed 6 mph (SW)    
Max Wind Speed 20 mph    
Max Gust Speed 23 mph    
Visibility 10 miles    
Events Rain , Thunderstorm    
T = Trace of Precipitation, MM = Missing Value Source: NWS Daily Summary

Daily Weather History Graph

Daily Weather History Graph

Search for Another Location

Airport:

Trip Planner

Search our weather history database for the weather conditions in past years. The results will help you decide how hot, cold, wet, or windy it might be!

Date:

Astronomy

Jul. 07, 2013 Rise Set
Actual Time 6:09 AM EDT 9:02 PM EDT
Civil Twilight 5:37 AM EDT 9:35 PM EDT
Nautical Twilight 4:56 AM EDT 10:15 PM EDT
Astronomical Twilight 4:09 AM EDT 11:02 PM EDT
Moon 5:45 AM EDT (7/7) 8:25 PM EDT (7/7)
Length of Visible Light 15h 57m
Length of Day
14h 52m
Waning Crescent, 0% of the Moon is Illuminated
Jul 7
Waning Crescent
Jul 8
New
Jul 15
First Quarter
Jul 22
Full
Jul 29
Last Quarter

Hourly Weather History & Observations

Time (EDT) Temp. Heat Index Dew Point Humidity Pressure Visibility Wind Dir Wind Speed Gust Speed Precip Events Conditions
12:51 AM 72.0 °F - 66.0 °F 81% 30.09 in 10.0 mi SSW 9.2 mph - N/A   Overcast
1:51 AM 70.0 °F - 64.9 °F 84% 30.08 in 10.0 mi South 5.8 mph - N/A   Overcast
2:51 AM 69.1 °F - 64.9 °F 87% 30.08 in 10.0 mi SW 6.9 mph - N/A   Mostly Cloudy
3:13 AM 69.8 °F - 64.4 °F 83% 30.10 in 10.0 mi South 4.6 mph - N/A   Mostly Cloudy
3:51 AM 69.1 °F - 64.0 °F 84% 30.09 in 10.0 mi South 5.8 mph - N/A   Mostly Cloudy
3:58 AM 68.0 °F - 64.4 °F 88% 30.10 in 10.0 mi South 4.6 mph - N/A   Mostly Cloudy
4:51 AM 68.0 °F - 64.0 °F 87% 30.08 in 10.0 mi South 4.6 mph - N/A   Mostly Cloudy
5:51 AM 68.0 °F - 64.9 °F 90% 30.08 in 10.0 mi SSW 4.6 mph - N/A   Overcast
6:51 AM 68.0 °F - 64.9 °F 90% 30.08 in 10.0 mi South 4.6 mph - N/A   Overcast
7:51 AM 69.1 °F - 64.9 °F 87% 30.09 in 10.0 mi South 4.6 mph - N/A   Overcast
8:51 AM 69.1 °F - 66.0 °F 90% 30.10 in 10.0 mi South 3.5 mph - N/A   Overcast
9:07 AM 69.8 °F - 66.2 °F 88% 30.13 in 10.0 mi SSW 4.6 mph - N/A   Overcast
9:51 AM 71.1 °F - 66.0 °F 84% 30.11 in 10.0 mi SSW 5.8 mph - N/A   Overcast
10:17 AM 71.6 °F - 64.4 °F 78% 30.13 in 10.0 mi SW 6.9 mph - N/A   Overcast
10:51 AM 73.0 °F - 64.9 °F 76% 30.10 in 10.0 mi SSW 3.5 mph - N/A   Mostly Cloudy
11:51 AM 75.0 °F - 66.0 °F 73% 30.11 in 10.0 mi Variable 4.6 mph - N/A   Overcast
12:00 PM 75.2 °F - 66.2 °F 73% 30.12 in 10.0 mi SW 6.9 mph - N/A   Overcast
12:51 PM 75.9 °F - 64.0 °F 67% 30.09 in 10.0 mi SW 5.8 mph - N/A   Overcast
1:51 PM 77.0 °F - 64.9 °F 66% 30.08 in 10.0 mi Calm Calm - N/A   Mostly Cloudy
2:51 PM 78.1 °F - 64.0 °F 62% 30.07 in 10.0 mi West 8.1 mph - N/A   Mostly Cloudy
3:51 PM 80.1 °F 81.9 °F 64.9 °F 60% 30.06 in 10.0 mi SW 9.2 mph 16.1 mph N/A   Mostly Cloudy
4:51 PM 82.0 °F 83.8 °F 64.9 °F 56% 30.04 in 10.0 mi West 6.9 mph - N/A   Mostly Cloudy
5:51 PM 81.0 °F 82.2 °F 63.0 °F 54% 30.02 in 10.0 mi West 9.2 mph - N/A   Mostly Cloudy
6:51 PM 80.1 °F 81.7 °F 64.0 °F 58% 30.01 in 10.0 mi WSW 9.2 mph - N/A   Mostly Cloudy
7:51 PM 80.1 °F 81.7 °F 64.0 °F 58% 30.03 in 10.0 mi SW 10.4 mph - N/A   Scattered Clouds
8:35 PM 78.8 °F - 64.4 °F 61% 30.07 in 10.0 mi West 10.4 mph - N/A Thunderstorm Thunderstorm
8:51 PM 79.0 °F - 64.9 °F 62% 30.05 in 10.0 mi WNW 6.9 mph - N/A Thunderstorm Thunderstorm
9:51 PM 70.0 °F - 62.1 °F 76% 30.08 in 8.0 mi NNE 9.2 mph - 0.00 in Rain , Thunderstorm Thunderstorms and Rain
9:58 PM 69.8 °F - 62.6 °F 78% 30.09 in 6.0 mi NNE 5.8 mph - 0.02 in Rain Rain
10:09 PM 69.8 °F - 62.6 °F 78% 30.10 in 10.0 mi NNE 4.6 mph - 0.02 in Thunderstorm Thunderstorm
10:31 PM 69.8 °F - 62.6 °F 78% 30.11 in 10.0 mi NW 6.9 mph - 0.02 in Thunderstorm Thunderstorm
10:51 PM 68.0 °F - 62.1 °F 81% 30.08 in 10.0 mi NNE 5.8 mph - 0.04 in Rain , Thunderstorm Light Thunderstorms and Rain
11:09 PM 66.2 °F - 62.6 °F 88% 30.09 in 10.0 mi Calm Calm - 0.01 in   Mostly Cloudy
11:51 PM 66.9 °F - 63.0 °F 87% 30.08 in 10.0 mi ESE 3.5 mph - 0.01 in   Mostly Cloudy